Kezdőlap
METAR-TAF:

METAR-TAF

Repülőterek :

Pittsfield Penstone Municipal Airport

Pittsfield, Illinois, Amerikai Egyesült Államok

földrajzi szélesség: 39-38-20N, földrajzi hosszúság: 090-46-42W, magasság: 216 m

Jelenlegi meteorológiai megfigyelések

A jelentés 24 perccel ezelõtt készült, 17:55 UTC
Délkeleti szél 4 kt
Hőmérséklet 11°C
Páratartalom 66%
Légköri nyomás 1019 hPa
Látótávolság: 16.1 km
Derült ég

METAR: KPPQ 011755Z AUTO 13004KT 10SM CLR 11/05 A3008 RMK AO2 T01120045 10112 20017

Idő: 13:19 (18:19 UTC)


TAF: hiányzik

Meteorológiai megfigyelések és előrejelzések több, mint 4000 repülőtéren (METAR és TAF jelentéseket).

A térképen piros és sárga pontok jelzik az elérhető meteorológiai állomásokat.

Mozgassa az egeret a pont fölött, hogy megjelenjen az állomás neve.

Azután kattintson az időjárási megfigyelések és előrejelzések megtekintéséhez.

A térkép megváltoztatása: kattintson a fekete keresztel jelölt zöld gombra ráközelítéshez, a vonallal jelölt zöld gombra távolításhoz, vagy a zöld nyilakra a szomszédos térképek eléréséhez.


METAR-TAF: